EW2973 Weather Reports


Display with metric or nautical units.
time (UTC)temp
F
wind
direction
speed
MPH
gust
MPH
rain 1hr
in
rain 24hr
in
rain mn
in
humidity
%
barometer
mb
20260503231526 55 243 9.0 20.0 0.00 0.00 0.00 47 1014.9
20260503230024 57 163 5.0 18.0 0.00 0.00 0.00 40 1014.6
20260503224524 58 221 4.0 14.0 0.00 0.00 0.00 39 1014.5
20260503223024 58 255 5.0 14.0 0.00 0.00 0.00 40 1014.6
20260503221523 58 306 4.0 15.0 0.00 0.00 0.00 40 1014.6
20260503220034 59 248 7.0 21.0 0.00 0.00 0.00 37 1014.8
20260503214541 59 232 6.0 15.0 0.00 0.00 0.00 39 1015.0
20260503213033 59 236 3.0 13.0 0.00 0.00 0.00 38 1015.0
20260503211528 59 295 4.0 10.0 0.00 0.00 0.00 40 1015.1
20260503210024 59 254 5.0 15.0 0.00 0.00 0.00 37 1015.3
20260503204528 60 238 2.0 13.0 0.00 0.00 0.00 38 1015.3
20260503203024 61 252 6.0 15.0 0.00 0.00 0.00 37 1015.5
20260503201519 60 277 9.0 16.0 0.00 0.00 0.00 37 1015.5
20260503200016 59 277 6.0 15.0 0.00 0.00 0.00 39 1015.6
20260503194512 60 154 4.0 14.0 0.00 0.00 0.00 39 1015.8
20260503193026 59 263 4.0 14.0 0.00 0.00 0.00 40 1016.2
20260503191527 60 263 3.0 14.0 0.00 0.00 0.00 39 1016.3
20260503190037 59 224 4.0 13.0 0.00 0.00 0.00 38 1016.5
20260503184524 60 209 6.0 18.0 0.00 0.00 0.00 38 1016.8
20260503183020 59 260 6.0 15.0 0.00 0.00 0.00 41 1017.1
20260503181537 59 297 11.0 17.0 0.00 0.00 0.00 39 1017.3
20260503180024 59 215 4.0 11.0 0.00 0.00 0.00 42 1017.4
20260503174526 58 261 4.0 14.0 0.00 0.00 0.00 41 1017.7
20260503173027 58 280 6.0 14.0 0.00 0.00 0.00 39 1017.9
20260503171528 57 214 8.0 14.0 0.00 0.00 0.00 41 1018.1
20260503081526 31 11 0.0 0.0 0.00 0.00 0.00 91 1018.1
20260503071517 32 11 0.0 0.0 0.00 0.00 0.00 90 1018.0
20260503054526 33 11 0.0 0.0 0.00 0.00 0.00 89 1018.6
20260503053017 33 11 0.0 0.0 0.00 0.00 0.00 89 1018.6
20260503051512 34 11 0.0 0.0 0.00 0.00 0.00 88 1018.5
20260503050009 34 11 0.0 0.0 0.00 0.00 0.00 89 1018.5
20260503044527 34 11 0.0 0.0 0.00 0.00 0.00 1018.4
20260503043022 35 11 0.0 0.0 0.00 0.00 0.00 1018.3
20260503041522 35 11 0.0 0.0 0.00 0.00 0.00 88 1018.2
20260503040027 35 11 0.0 0.0 0.00 0.00 0.00 1018.4
20260503034516 35 11 0.0 0.0 0.00 0.00 0.00 87 1018.4
20260503033012 36 11 0.0 0.0 0.00 0.00 0.00 85 1018.5
20260503031508 36 11 0.0 0.0 0.00 0.00 0.00 1018.5
20260503030023 37 11 0.0 0.0 0.00 0.00 0.00 1018.7
20260503024525 38 11 0.0 0.0 0.00 0.00 0.00 79 1018.7
20260503023021 39 11 0.0 0.0 0.00 0.00 0.00 78 1018.7
20260503021518 40 11 0.0 0.0 0.00 0.00 0.00 76 1018.5
20260503020018 40 11 0.0 0.0 0.00 0.00 0.00 74 1018.5
20260503014512 41 11 0.0 0.0 0.00 0.00 0.00 72 1018.4
20260503013029 42 11 0.0 0.0 0.00 0.00 0.00 69 1018.4
20260503011532 42 11 0.0 0.0 0.00 0.00 0.00 69 1018.2
20260503010024 43 11 0.0 0.0 0.00 0.00 0.00 69 1018.3
20260503004521 43 11 0.0 0.0 0.00 0.01 0.00 64 1018.1
20260503003016 43 11 0.0 0.0 0.00 0.01 0.00 63 1018.1
20260503001514 43 352 0.0 0.0 0.00 0.01 0.00 64 1018.2
20260503000010 44 352 0.0 1.0 0.00 0.01 0.00 62 1018.0
20260502234534 44 9 1.0 3.0 0.00 0.01 0.00 60 1017.9
20260502233024 44 11 0.0 2.0 0.00 0.01 0.00 61 1017.8